| time (UTC) | temp F | wind direction | speed MPH | gust MPH | rain 1hr in | rain 24hr in | rain mn in | humidity % | barometer mb |
| 20260508014228 | 70 | 302 | 0.0 | 0.0 | 0.00 | 0.00 | 0.00 | 52 | 1014.0 |
| 20260508013731 | 70 | 302 | 0.0 | 0.0 | 0.00 | 0.00 | 0.00 | 51 | 1014.1 |
| 20260508013231 | 70 | 302 | 0.0 | 0.0 | 0.00 | 0.00 | 0.00 | 52 | 1014.2 |
| 20260508012730 | 70 | 302 | 0.0 | 0.0 | 0.00 | 0.00 | 0.00 | 51 | 1014.2 |
| 20260508012230 | 71 | 302 | 0.0 | 0.0 | 0.00 | 0.00 | 0.00 | 50 | 1014.3 |
| 20260508011732 | 71 | 302 | 0.0 | 0.0 | 0.00 | 0.00 | 0.00 | 51 | 1014.3 |
| 20260508011234 | 71 | 302 | 0.0 | 0.0 | 0.00 | 0.00 | 0.00 | 51 | 1014.4 |
| 20260508010730 | 71 | 302 | 0.0 | 0.0 | 0.00 | 0.00 | 0.00 | 51 | 1014.4 |
| 20260508010230 | 71 | 302 | 0.0 | 0.0 | 0.00 | 0.00 | 0.00 | 50 | 1014.4 |
| 20260508005731 | 71 | 302 | 0.0 | 0.0 | 0.00 | 0.00 | 0.00 | 51 | 1014.5 |
| 20260508005230 | 71 | 302 | 0.0 | 0.0 | 0.00 | 0.00 | 0.00 | 51 | 1014.5 |
| 20260508004729 | 71 | 302 | 0.0 | 0.0 | 0.00 | 0.00 | 0.00 | 50 | 1014.5 |
| 20260508004228 | 71 | 302 | 0.0 | 0.0 | 0.00 | 0.00 | 0.00 | 51 | 1014.5 |
| 20260508003730 | 71 | 302 | 0.0 | 0.0 | 0.00 | 0.00 | 0.00 | 52 | 1014.5 |
| 20260508003230 | 70 | 302 | 0.0 | 0.0 | 0.00 | 0.00 | 0.00 | 50 | 1014.6 |
| 20260508002730 | 71 | 302 | 0.0 | 0.0 | 0.00 | 0.00 | 0.00 | 50 | 1014.7 |
| 20260508001729 | 71 | 302 | 0.0 | 0.0 | 0.00 | 0.00 | 0.00 | 51 | 1014.8 |
| 20260508001231 | 72 | 302 | 0.0 | 0.0 | 0.00 | 0.00 | 0.00 | 48 | 1014.8 |
| 20260508000732 | 72 | 302 | 0.0 | 0.0 | 0.00 | 0.00 | 0.00 | 49 | 1014.8 |
| 20260508000230 | 72 | 302 | 0.0 | 0.0 | 0.00 | 0.00 | 0.00 | 48 | 1014.8 |
| 20260507235230 | 73 | 302 | 0.0 | 0.0 | 0.00 | 0.00 | 0.00 | 48 | 1014.9 |
| 20260507234730 | 72 | 302 | 0.0 | 0.0 | 0.00 | 0.00 | 0.00 | 49 | 1015.0 |
| 20260507233231 | 71 | 302 | 0.0 | 0.0 | 0.00 | 0.00 | 0.00 | 50 | 1015.1 |
| 20260507232730 | 70 | 302 | 0.0 | 0.0 | 0.00 | 0.00 | 0.00 | 49 | 1015.1 |
| 20260507231218 | 70 | 302 | 0.0 | 0.0 | 0.00 | 0.00 | 0.00 | 49 | 1015.4 |
| 20260507230715 | 71 | 302 | 0.0 | 0.0 | 0.00 | 0.00 | 0.00 | 49 | 1015.6 |
| 20260507230210 | 70 | 302 | 0.0 | 0.0 | 0.00 | 0.00 | 0.00 | 49 | 1015.6 |
| 20260507225711 | 69 | 302 | 0.0 | 0.0 | 0.00 | 0.00 | 0.00 | 51 | 1015.7 |
| 20260507225211 | 70 | 302 | 0.0 | 0.0 | 0.00 | 0.00 | 0.00 | 49 | 1015.8 |
| 20260507224705 | 69 | 302 | 0.0 | 0.0 | 0.00 | 0.00 | 0.00 | 50 | 1015.9 |
| 20260507224202 | 69 | 302 | 0.0 | 0.0 | 0.00 | 0.00 | 0.00 | 50 | 1015.9 |
| 20260507223202 | 68 | 302 | 0.0 | 0.0 | 0.00 | 0.00 | 0.00 | 49 | 1016.1 |
| 20260507222701 | 68 | 302 | 0.0 | 0.0 | 0.00 | 0.00 | 0.00 | 48 | 1016.1 |
| 20260507222204 | 68 | 302 | 0.0 | 0.0 | 0.00 | 0.00 | 0.00 | 49 | 1016.2 |
| 20260507221703 | 68 | 302 | 0.0 | 0.0 | 0.00 | 0.00 | 0.00 | 51 | 1016.3 |
| 20260507221203 | 68 | 302 | 0.0 | 0.0 | 0.00 | 0.00 | 0.00 | 48 | 1016.4 |
| 20260507220703 | 68 | 302 | 0.0 | 0.0 | 0.00 | 0.00 | 0.00 | 51 | 1016.6 |
| 20260507220202 | 67 | 302 | 0.0 | 0.0 | 0.00 | 0.00 | 0.00 | 48 | 1016.7 |
| 20260507215703 | 67 | 302 | 0.0 | 0.0 | 0.00 | 0.00 | 0.00 | 51 | 1016.7 |
| 20260507215203 | 65 | 302 | 0.0 | 0.0 | 0.00 | 0.00 | 0.00 | 47 | 1016.8 |
| 20260507214702 | 66 | 302 | 0.0 | 0.0 | 0.00 | 0.00 | 0.00 | 48 | 1016.8 |
| 20260507214201 | 66 | 302 | 0.0 | 0.0 | 0.00 | 0.00 | 0.00 | 47 | 1016.8 |
| 20260507213702 | 66 | 302 | 0.0 | 0.0 | 0.00 | 0.00 | 0.00 | 51 | 1016.8 |
| 20260507213201 | 66 | 302 | 0.0 | 0.0 | 0.00 | 0.00 | 0.00 | 46 | 1016.9 |
| 20260507212702 | 66 | 302 | 0.0 | 0.0 | 0.00 | 0.00 | 0.00 | 47 | 1017.0 |
| 20260507212201 | 66 | 302 | 0.0 | 0.0 | 0.00 | 0.00 | 0.00 | 46 | 1017.0 |
| 20260507211704 | 66 | 302 | 0.0 | 0.0 | 0.00 | 0.00 | 0.00 | 46 | 1017.1 |
| 20260507211204 | 66 | 302 | 0.0 | 0.0 | 0.00 | 0.00 | 0.00 | 47 | 1017.1 |
| 20260507210703 | 66 | 302 | 0.0 | 0.0 | 0.00 | 0.00 | 0.00 | 49 | 1017.2 |
| 20260507210203 | 66 | 302 | 0.0 | 0.0 | 0.00 | 0.00 | 0.00 | 49 | 1017.2 |
| 20260507204703 | 66 | 302 | 0.0 | 0.0 | 0.00 | 0.00 | 0.00 | 53 | 1017.4 |
| 20260507204203 | 65 | 302 | 0.0 | 0.0 | 0.00 | 0.00 | 0.00 | 51 | 1017.5 |
| 20260507203703 | 65 | 302 | 0.0 | 0.0 | 0.00 | 0.00 | 0.00 | 55 | 1017.5 |
| 20260507202703 | 64 | 302 | 0.0 | 0.0 | 0.00 | 0.00 | 0.00 | 55 | 1017.6 |
| 20260507202203 | 64 | 302 | 0.0 | 0.0 | 0.00 | 0.00 | 0.00 | 52 | 1017.8 |
| 20260507201702 | 65 | 302 | 0.0 | 0.0 | 0.00 | 0.00 | 0.00 | 54 | 1017.8 |
| 20260507201204 | 64 | 302 | 0.0 | 0.0 | 0.00 | 0.00 | 0.00 | 52 | 1017.9 |
| 20260507200702 | 64 | 302 | 0.0 | 0.0 | 0.00 | 0.00 | 0.00 | 52 | 1018.0 |
| 20260507200203 | 64 | 302 | 0.0 | 0.0 | 0.00 | 0.00 | 0.00 | 52 | 1018.1 |
| 20260507195201 | 64 | 302 | 0.0 | 0.0 | 0.00 | 0.00 | 0.00 | 55 | 1018.2 |
| 20260507194701 | 63 | 302 | 0.0 | 0.0 | 0.00 | 0.00 | 0.00 | 56 | 1018.2 |
| 20260507194202 | 62 | 302 | 0.0 | 0.0 | 0.00 | 0.00 | 0.00 | 56 | 1018.2 |
| 20260507193702 | 63 | 302 | 0.0 | 0.0 | 0.00 | 0.00 | 0.00 | 55 | 1018.3 |
| 20260507193200 | 63 | 302 | 0.0 | 0.0 | 0.00 | 0.00 | 0.00 | 55 | 1018.3 |
| 20260507192204 | 64 | 302 | 0.0 | 0.0 | 0.00 | 0.00 | 0.00 | 53 | 1018.4 |
| 20260507191703 | 63 | 302 | 0.0 | 0.0 | 0.00 | 0.00 | 0.00 | 55 | 1018.5 |
| 20260507191202 | 63 | 302 | 0.0 | 0.0 | 0.00 | 0.00 | 0.00 | 56 | 1018.5 |
| 20260507190704 | 63 | 302 | 0.0 | 0.0 | 0.00 | 0.00 | 0.00 | 55 | 1018.5 |
| 20260507190204 | 63 | 302 | 0.0 | 0.0 | 0.00 | 0.00 | 0.00 | 55 | 1018.6 |
| 20260507185703 | 63 | 302 | 0.0 | 0.0 | 0.00 | 0.00 | 0.00 | 56 | 1018.6 |
| 20260507185203 | 63 | 302 | 0.0 | 0.0 | 0.00 | 0.00 | 0.00 | 56 | 1018.7 |
| 20260507183703 | 62 | 302 | 0.0 | 0.0 | 0.00 | 0.00 | 0.00 | 56 | 1018.8 |
| 20260507183203 | 61 | 302 | 0.0 | 0.0 | 0.00 | 0.00 | 0.00 | 54 | 1018.9 |
| 20260507182705 | 60 | 302 | 0.0 | 0.0 | 0.00 | 0.00 | 0.00 | 56 | 1018.8 |
| 20260507181201 | 60 | 302 | 0.0 | 0.0 | 0.00 | 0.00 | 0.00 | 55 | 1019.1 |
| 20260507180203 | 60 | 302 | 0.0 | 0.0 | 0.00 | 0.00 | 0.00 | 55 | 1019.1 |
| 20260507175203 | 60 | 302 | 0.0 | 0.0 | 0.00 | 0.00 | 0.00 | 50 | 1019.2 |
| 20260507174203 | 58 | 302 | 0.0 | 0.0 | 0.00 | 0.00 | 0.00 | 48 | 1019.3 |
| 20260507173702 | 57 | 302 | 0.0 | 0.0 | 0.00 | 0.00 | 0.00 | 49 | 1019.3 |
| 20260507173202 | 57 | 302 | 0.0 | 0.0 | 0.00 | 0.00 | 0.00 | 46 | 1019.4 |
| 20260507172203 | 57 | 302 | 0.0 | 0.0 | 0.00 | 0.00 | 0.00 | 40 | 1019.4 |
| 20260507171704 | 56 | 302 | 0.0 | 0.0 | 0.00 | 0.00 | 0.00 | 40 | 1019.5 |
| 20260507171204 | 56 | 302 | 0.0 | 0.0 | 0.00 | 0.00 | 0.00 | 35 | 1019.4 |
| 20260507170703 | 56 | 302 | 0.0 | 0.0 | 0.00 | 0.00 | 0.00 | 29 | 1019.4 |
| 20260507170155 | 55 | 302 | 0.0 | 0.0 | 0.00 | 0.00 | 0.00 | 34 | 1019.4 |
| 20260507165139 | 54 | 302 | 0.0 | 0.0 | 0.00 | 0.00 | 0.00 | 35 | 1019.5 |
| 20260507164638 | 54 | 302 | 0.0 | 0.0 | 0.00 | 0.00 | 0.00 | 36 | 1019.5 |
| 20260507163632 | 53 | 302 | 0.0 | 0.0 | 0.00 | 0.00 | 0.00 | 32 | 1019.5 |
| 20260507163132 | 53 | 302 | 0.0 | 0.0 | 0.00 | 0.00 | 0.00 | 35 | 1019.5 |
| 20260507162632 | 53 | 302 | 0.0 | 0.0 | 0.00 | 0.00 | 0.00 | 29 | 1019.5 |
| 20260507162132 | 53 | 302 | 0.0 | 0.0 | 0.00 | 0.00 | 0.00 | 27 | 1019.5 |
| 20260507161629 | 52 | 302 | 0.0 | 0.0 | 0.00 | 0.00 | 0.00 | 28 | 1019.5 |
| 20260507161130 | 52 | 302 | 0.0 | 0.0 | 0.00 | 0.00 | 0.00 | 27 | 1019.5 |
| 20260507160626 | 52 | 302 | 0.0 | 0.0 | 0.00 | 0.00 | 0.00 | 28 | 1019.6 |
| 20260507160126 | 52 | 302 | 0.0 | 0.0 | 0.00 | 0.00 | 0.00 | 27 | 1019.5 |
| 20260507155626 | 52 | 302 | 0.0 | 0.0 | 0.00 | 0.00 | 0.00 | 28 | 1019.6 |
| 20260507155129 | 52 | 302 | 0.0 | 0.0 | 0.00 | 0.00 | 0.00 | 27 | 1019.6 |
| 20260507154625 | 52 | 302 | 0.0 | 0.0 | 0.00 | 0.00 | 0.00 | 23 | 1019.6 |
| 20260507154124 | 52 | 302 | 0.0 | 0.0 | 0.00 | 0.00 | 0.00 | 25 | 1019.6 |
| 20260507153624 | 52 | 302 | 0.0 | 0.0 | 0.00 | 0.00 | 0.00 | 23 | 1019.6 |
| 20260507153102 | 51 | 302 | 0.0 | 0.0 | 0.00 | 0.00 | 0.00 | 21 | 1019.6 |
| 20260507152102 | 51 | 302 | 0.0 | 0.0 | 0.00 | 0.00 | 0.00 | 21 | 1019.5 |
| 20260507151602 | 51 | 302 | 0.0 | 0.0 | 0.00 | 0.00 | 0.00 | 22 | 1019.6 |
| 20260507151102 | 51 | 302 | 0.0 | 0.0 | 0.00 | 0.00 | 0.00 | 22 | 1019.5 |
| 20260507150603 | 51 | 302 | 0.0 | 0.0 | 0.00 | 0.00 | 0.00 | 20 | 1019.5 |
| 20260507150104 | 51 | 302 | 0.0 | 0.0 | 0.00 | 0.00 | 0.00 | 20 | 1019.5 |
| 20260507145604 | 51 | 302 | 0.0 | 0.0 | 0.00 | 0.00 | 0.00 | 18 | 1019.5 |
| 20260507145103 | 51 | 302 | 0.0 | 0.0 | 0.00 | 0.00 | 0.00 | 20 | 1019.5 |
| 20260507144602 | 51 | 302 | 0.0 | 0.0 | 0.00 | 0.00 | 0.00 | 18 | 1019.5 |
| 20260507144103 | 51 | 302 | 0.0 | 0.0 | 0.00 | 0.00 | 0.00 | 21 | 1019.5 |
| 20260507143103 | 51 | 302 | 0.0 | 0.0 | 0.00 | 0.00 | 0.00 | 24 | 1019.4 |
| 20260507142603 | 51 | 302 | 0.0 | 0.0 | 0.00 | 0.00 | 0.00 | 22 | 1019.5 |
| 20260507142104 | 51 | 302 | 0.0 | 0.0 | 0.00 | 0.00 | 0.00 | 19 | 1019.4 |
| 20260507141602 | 51 | 302 | 0.0 | 0.0 | 0.00 | 0.00 | 0.00 | 17 | 1019.4 |
| 20260507141103 | 51 | 302 | 0.0 | 0.0 | 0.00 | 0.00 | 0.00 | 19 | 1019.5 |
| 20260507140609 | 51 | 302 | 0.0 | 0.0 | 0.00 | 0.00 | 0.00 | 17 | 1019.4 |
| 20260507135603 | 51 | 302 | 0.0 | 0.0 | 0.00 | 0.00 | 0.00 | 15 | 1019.2 |
| 20260507135104 | 51 | 302 | 0.0 | 0.0 | 0.00 | 0.00 | 0.00 | 16 | 1019.2 |
| 20260507134602 | 51 | 302 | 0.0 | 0.0 | 0.00 | 0.00 | 0.00 | 18 | 1019.1 |
| 20260507134102 | 51 | 302 | 0.0 | 0.0 | 0.00 | 0.00 | 0.00 | 19 | 1019.2 |
| 20260507133601 | 51 | 302 | 0.0 | 0.0 | 0.00 | 0.00 | 0.00 | 20 | 1019.1 |
| 20260507133102 | 51 | 302 | 0.0 | 0.0 | 0.00 | 0.00 | 0.00 | 22 | 1019.1 |
| 20260507132600 | 51 | 302 | 0.0 | 0.0 | 0.00 | 0.00 | 0.00 | 23 | 1019.0 |
| 20260507132106 | 51 | 302 | 0.0 | 0.0 | 0.00 | 0.00 | 0.00 | 26 | 1019.0 |
| 20260507131603 | 51 | 302 | 0.0 | 0.0 | 0.00 | 0.00 | 0.00 | 26 | 1019.0 |
| 20260507131103 | 51 | 302 | 0.0 | 0.0 | 0.00 | 0.00 | 0.00 | 27 | 1019.1 |
| 20260507130603 | 51 | 302 | 0.0 | 0.0 | 0.00 | 0.00 | 0.00 | 26 | 1019.0 |
| 20260507130103 | 51 | 302 | 0.0 | 0.0 | 0.00 | 0.00 | 0.00 | 26 | 1019.1 |
| 20260507125603 | 51 | 302 | 0.0 | 0.0 | 0.00 | 0.00 | 0.00 | 26 | 1019.1 |
| 20260507125108 | 51 | 302 | 0.0 | 0.0 | 0.00 | 0.00 | 0.00 | 27 | 1019.1 |
| 20260507124603 | 51 | 302 | 0.0 | 0.0 | 0.00 | 0.00 | 0.00 | 26 | 1019.1 |
| 20260507124102 | 51 | 302 | 0.0 | 0.0 | 0.00 | 0.00 | 0.00 | 27 | 1019.0 |
| 20260507123601 | 51 | 302 | 0.0 | 0.0 | 0.00 | 0.00 | 0.00 | 27 | 1019.1 |
| 20260507123102 | 51 | 302 | 0.0 | 0.0 | 0.00 | 0.00 | 0.00 | 28 | 1019.1 |
| 20260507122602 | 51 | 302 | 0.0 | 0.0 | 0.00 | 0.00 | 0.00 | 28 | 1019.1 |
| 20260507122100 | 52 | 302 | 0.0 | 0.0 | 0.00 | 0.00 | 0.00 | 28 | 1019.1 |
| 20260507121602 | 52 | 302 | 0.0 | 0.0 | 0.00 | 0.00 | 0.00 | 27 | 1019.1 |
| 20260507121104 | 52 | 302 | 0.0 | 0.0 | 0.00 | 0.00 | 0.00 | 28 | 1019.2 |
| 20260507120603 | 52 | 302 | 0.0 | 0.0 | 0.00 | 0.00 | 0.00 | 28 | 1019.2 |
| 20260507115603 | 52 | 302 | 0.0 | 0.0 | 0.00 | 0.00 | 0.00 | 28 | 1019.3 |
| 20260507115103 | 52 | 302 | 0.0 | 0.0 | 0.00 | 0.00 | 0.00 | 28 | 1019.3 |
| 20260507114602 | 52 | 302 | 0.0 | 0.0 | 0.00 | 0.00 | 0.00 | 29 | 1019.3 |
| 20260507114103 | 52 | 302 | 0.0 | 0.0 | 0.00 | 0.00 | 0.00 | 30 | 1019.4 |
| 20260507113602 | 52 | 302 | 0.0 | 0.0 | 0.00 | 0.00 | 0.00 | 29 | 1019.4 |
| 20260507112604 | 52 | 302 | 0.0 | 0.0 | 0.00 | 0.00 | 0.00 | 29 | 1019.4 |
| 20260507112104 | 52 | 302 | 0.0 | 0.0 | 0.00 | 0.00 | 0.00 | 28 | 1019.4 |
| 20260507111603 | 52 | 302 | 0.0 | 0.0 | 0.00 | 0.00 | 0.00 | 29 | 1019.4 |
| 20260507111103 | 52 | 302 | 0.0 | 0.0 | 0.00 | 0.00 | 0.00 | 29 | 1019.4 |
| 20260507110604 | 52 | 302 | 0.0 | 0.0 | 0.00 | 0.00 | 0.00 | 29 | 1019.4 |
| 20260507110104 | 52 | 302 | 0.0 | 0.0 | 0.00 | 0.00 | 0.00 | 30 | 1019.4 |
| 20260507105609 | 52 | 302 | 0.0 | 0.0 | 0.00 | 0.00 | 0.00 | 31 | 1019.5 |
| 20260507105101 | 52 | 302 | 0.0 | 0.0 | 0.00 | 0.00 | 0.00 | 32 | 1019.4 |
| 20260507104601 | 53 | 302 | 0.0 | 0.0 | 0.00 | 0.00 | 0.00 | 31 | 1019.5 |
| 20260507104102 | 53 | 302 | 0.0 | 0.0 | 0.00 | 0.00 | 0.00 | 29 | 1019.5 |
| 20260507103602 | 53 | 302 | 0.0 | 0.0 | 0.00 | 0.00 | 0.00 | 30 | 1019.7 |
| 20260507102604 | 53 | 302 | 0.0 | 0.0 | 0.00 | 0.00 | 0.00 | 31 | 1019.7 |
| 20260507102059 | 53 | 302 | 0.0 | 0.0 | 0.00 | 0.00 | 0.00 | 30 | 1019.7 |
| 20260507101555 | 53 | 302 | 0.0 | 0.0 | 0.00 | 0.00 | 0.00 | 30 | 1019.7 |
| 20260507101055 | 53 | 302 | 0.0 | 0.0 | 0.00 | 0.00 | 0.00 | 30 | 1019.8 |
| 20260507100531 | 53 | 302 | 0.0 | 0.0 | 0.00 | 0.00 | 0.00 | 30 | 1019.8 |
| 20260507095531 | 53 | 302 | 0.0 | 0.0 | 0.00 | 0.00 | 0.00 | 30 | 1019.8 |
| 20260507095030 | 53 | 302 | 0.0 | 0.0 | 0.00 | 0.00 | 0.00 | 29 | 1019.8 |
| 20260507094529 | 53 | 302 | 0.0 | 0.0 | 0.00 | 0.00 | 0.00 | 27 | 1019.8 |
| 20260507094031 | 53 | 302 | 0.0 | 0.0 | 0.00 | 0.00 | 0.00 | 28 | 1019.9 |
| 20260507093531 | 53 | 302 | 0.0 | 0.0 | 0.00 | 0.00 | 0.00 | 28 | 1019.9 |
| 20260507092032 | 53 | 302 | 0.0 | 0.0 | 0.00 | 0.00 | 0.00 | 26 | 1020.0 |
| 20260507091531 | 53 | 302 | 0.0 | 0.0 | 0.00 | 0.00 | 0.00 | 27 | 1020.0 |
| 20260507091032 | 53 | 302 | 0.0 | 0.0 | 0.00 | 0.00 | 0.00 | 28 | 1020.2 |
| 20260507090526 | 53 | 302 | 0.0 | 0.0 | 0.00 | 0.00 | 0.00 | 28 | 1020.2 |
| 20260507090027 | 53 | 302 | 0.0 | 0.0 | 0.00 | 0.00 | 0.00 | 29 | 1020.2 |
| 20260507085518 | 54 | 302 | 0.0 | 0.0 | 0.00 | 0.00 | 0.00 | 29 | 1020.2 |
| 20260507085019 | 54 | 302 | 0.0 | 0.0 | 0.00 | 0.00 | 0.00 | 27 | 1020.2 |
| 20260507084003 | 54 | 302 | 0.0 | 0.0 | 0.00 | 0.00 | 0.00 | 24 | 1020.1 |
| 20260507083001 | 54 | 302 | 0.0 | 0.0 | 0.00 | 0.00 | 0.00 | 24 | 1020.1 |
| 20260507082002 | 54 | 302 | 0.0 | 0.0 | 0.00 | 0.00 | 0.00 | 23 | 1020.1 |
| 20260507081002 | 54 | 302 | 0.0 | 0.0 | 0.00 | 0.00 | 0.00 | 17 | 1020.1 |
| 20260507080504 | 54 | 302 | 0.0 | 0.0 | 0.00 | 0.00 | 0.00 | 15 | 1020.1 |
| 20260507075502 | 54 | 302 | 0.0 | 0.0 | 0.00 | 0.00 | 0.00 | 14 | 1020.1 |
| 20260507075004 | 54 | 302 | 0.0 | 0.0 | 0.00 | 0.00 | 0.00 | 7 | 1020.1 |
| 20260507074504 | 54 | 302 | 0.0 | 0.0 | 0.00 | 0.00 | 0.00 | 6 | 1020.2 |
| 20260507074003 | 54 | 302 | 0.0 | 0.0 | 0.00 | 0.00 | 0.00 | 4 | 1020.1 |
| 20260507073004 | 54 | 302 | 0.0 | 0.0 | 0.00 | 0.00 | 0.00 | 3 | 1020.1 |
| 20260507072503 | 54 | 302 | 0.0 | 0.0 | 0.00 | 0.00 | 0.00 | 1 | 1020.2 |
| 20260507072003 | 54 | 302 | 0.0 | 0.0 | 0.00 | 0.00 | 0.00 | 2 | 1020.1 |
| 20260507071501 | 54 | 302 | 0.0 | 0.0 | 0.00 | 0.00 | 0.00 | 1 | 1020.0 |
| 20260507071002 | 54 | 302 | 0.0 | 0.0 | 0.00 | 0.00 | 0.00 | 100 | 1020.0 |
| 20260507070501 | 54 | 302 | 0.0 | 0.0 | 0.00 | 0.00 | 0.00 | 1 | 1020.0 |
| 20260507070002 | 54 | 302 | 0.0 | 0.0 | 0.00 | 0.00 | 0.00 | 2 | 1020.0 |
| 20260507065502 | 54 | 302 | 0.0 | 0.0 | 0.00 | 0.00 | 0.00 | 2 | 1019.9 |
| 20260507065004 | 54 | 302 | 0.0 | 0.0 | 0.00 | 0.00 | 0.00 | 3 | 1019.9 |
| 20260507064004 | 54 | 302 | 0.0 | 0.0 | 0.00 | 0.00 | 0.00 | 3 | 1019.9 |
| 20260507063504 | 55 | 302 | 0.0 | 0.0 | 0.00 | 0.00 | 0.00 | 3 | 1019.9 |
| 20260507063001 | 55 | 302 | 0.0 | 0.0 | 0.00 | 0.00 | 0.00 | 3 | 1019.9 |
| 20260507062501 | 55 | 302 | 0.0 | 0.0 | 0.00 | 0.00 | 0.00 | 2 | 1019.9 |
| 20260507062001 | 55 | 302 | 0.0 | 0.0 | 0.00 | 0.00 | 0.00 | 2 | 1020.0 |
| 20260507061502 | 55 | 302 | 0.0 | 0.0 | 0.00 | 0.00 | 0.00 | 3 | 1019.9 |
| 20260507061002 | 55 | 302 | 0.0 | 0.0 | 0.00 | 0.00 | 0.00 | 3 | 1020.0 |
| 20260507060504 | 55 | 302 | 0.0 | 0.0 | 0.00 | 0.00 | 0.00 | 4 | 1020.0 |
| 20260507060004 | 55 | 302 | 0.0 | 0.0 | 0.00 | 0.00 | 0.00 | 4 | 1019.9 |
| 20260507055446 | 55 | 301 | 1.0 | 9.0 | 0.00 | 0.00 | 0.00 | 6 | 1020.0 |
| 20260507054943 | 55 | 301 | 3.0 | 9.0 | 0.00 | 0.00 | 0.00 | 6 | 1019.9 |
| 20260507054433 | 56 | 301 | 3.0 | 9.0 | 0.00 | 0.00 | 0.00 | 6 | 1020.0 |
| 20260507053430 | 56 | 301 | 2.0 | 5.0 | 0.00 | 0.00 | 0.00 | 12 | 1019.9 |
| 20260507052930 | 56 | 301 | 3.0 | 8.0 | 0.00 | 0.00 | 0.00 | 14 | 1019.9 |
| 20260507052430 | 56 | 301 | 4.0 | 9.0 | 0.00 | 0.00 | 0.00 | 16 | 1019.9 |
| 20260507051929 | 56 | 301 | 5.0 | 9.0 | 0.00 | 0.00 | 0.00 | 17 | 1019.8 |
| 20260507051430 | 57 | 301 | 3.0 | 8.0 | 0.00 | 0.00 | 0.00 | 16 | 1019.8 |
| 20260507045930 | 57 | 301 | 0.0 | 0.0 | 0.00 | 0.00 | 0.00 | 19 | 1019.8 |
| 20260507045430 | 57 | 301 | 0.0 | 0.0 | 0.00 | 0.00 | 0.00 | 20 | 1019.8 |
| 20260507044930 | 57 | 301 | 0.0 | 0.0 | 0.00 | 0.00 | 0.00 | 21 | 1019.8 |
| 20260507044430 | 57 | 301 | 0.0 | 0.0 | 0.00 | 0.00 | 0.00 | 21 | 1019.8 |
| 20260507043931 | 58 | 301 | 0.0 | 4.0 | 0.00 | 0.00 | 0.00 | 22 | 1019.8 |
| 20260507043424 | 58 | 300 | 0.0 | 4.0 | 0.00 | 0.00 | 0.00 | 23 | 1019.8 |
| 20260507042922 | 58 | 300 | 0.0 | 4.0 | 0.00 | 0.00 | 0.00 | 23 | 1019.7 |
| 20260507042422 | 58 | 300 | 1.0 | 5.0 | 0.00 | 0.00 | 0.00 | 24 | 1019.7 |
| 20260507041923 | 58 | 300 | 2.0 | 9.0 | 0.00 | 0.00 | 0.00 | 24 | 1019.7 |
| 20260507040923 | 58 | 299 | 6.0 | 11.0 | 0.00 | 0.00 | 0.00 | 23 | 1019.6 |
| 20260507040424 | 59 | 299 | 7.0 | 11.0 | 0.00 | 0.00 | 0.00 | 24 | 1019.5 |
| 20260507035923 | 59 | 295 | 6.0 | 11.0 | 0.00 | 0.00 | 0.00 | 21 | 1019.4 |
| 20260507035423 | 59 | 287 | 4.0 | 10.0 | 0.00 | 0.00 | 0.00 | 15 | 1019.4 |
| 20260507034923 | 60 | 287 | 4.0 | 10.0 | 0.00 | 0.00 | 0.00 | 13 | 1019.3 |
| 20260507034423 | 60 | 287 | 2.0 | 9.0 | 0.00 | 0.00 | 0.00 | 10 | 1019.2 |
| 20260507033923 | 60 | 287 | 0.0 | 4.0 | 0.00 | 0.00 | 0.00 | 11 | 1019.2 |
| 20260507033424 | 60 | 287 | 2.0 | 7.0 | 0.00 | 0.00 | 0.00 | 13 | 1019.1 |
| 20260507032924 | 60 | 287 | 4.0 | 9.0 | 0.00 | 0.00 | 0.00 | 15 | 1019.0 |
| 20260507032422 | 60 | 287 | 4.0 | 9.0 | 0.00 | 0.00 | 0.00 | 17 | 1018.9 |
| 20260507031922 | 60 | 287 | 2.0 | 9.0 | 0.00 | 0.00 | 0.00 | 17 | 1018.8 |
| 20260507031421 | 61 | 287 | 1.0 | 9.0 | 0.00 | 0.00 | 0.00 | 18 | 1018.8 |
| 20260507030921 | 61 | 287 | 0.0 | 0.0 | 0.00 | 0.00 | 0.00 | 18 | 1018.7 |
| 20260507030421 | 61 | 287 | 0.0 | 7.0 | 0.00 | 0.00 | 0.00 | 18 | 1018.7 |
| 20260507025921 | 61 | 287 | 2.0 | 7.0 | 0.00 | 0.00 | 0.00 | 19 | 1018.6 |
| 20260507025422 | 61 | 287 | 3.0 | 7.0 | 0.00 | 0.00 | 0.00 | 21 | 1018.6 |
| 20260507024423 | 62 | 287 | 4.0 | 7.0 | 0.00 | 0.00 | 0.00 | 26 | 1018.5 |
| 20260507023921 | 62 | 287 | 3.0 | 7.0 | 0.00 | 0.00 | 0.00 | 25 | 1018.5 |
| 20260507023422 | 62 | 287 | 3.0 | 7.0 | 0.00 | 0.00 | 0.00 | 29 | 1018.4 |
| 20260507022923 | 62 | 287 | 3.0 | 7.0 | 0.00 | 0.00 | 0.00 | 30 | 1018.4 |
| 20260507022423 | 62 | 287 | 2.0 | 8.0 | 0.00 | 0.00 | 0.00 | 30 | 1018.3 |
| 20260507020925 | 63 | 287 | 1.0 | 4.0 | 0.00 | 0.00 | 0.00 | 33 | 1018.3 |
| 20260507020424 | 63 | 287 | 2.0 | 7.0 | 0.00 | 0.00 | 0.00 | 34 | 1018.3 |
| 20260507015923 | 63 | 287 | 1.0 | 7.0 | 0.00 | 0.00 | 0.00 | 37 | 1018.3 |
| 20260507014922 | 64 | 287 | 2.0 | 9.0 | 0.00 | 0.00 | 0.00 | 39 | 1018.4 |